CW0230 Weather Reports


Display with metric or nautical units.
time (UTC)temp
F
wind
direction
speed
MPH
gust
MPH
rain 1hr
in
rain 24hr
in
rain mn
in
humidity
%
barometer
mb
20260506061505 50 3 2.0 7.0 0.00 0.00 0.00 81 1013.3
20260506061005 49 16 2.0 7.0 0.00 0.00 0.00 81 1013.3
20260506060505 49 25 3.0 5.0 0.00 0.00 0.00 81 1013.3
20260506051005 50 349 2.0 6.0 0.00 0.00 0.00 82 1013.0
20260506050505 50 356 3.0 6.0 0.00 0.00 0.00 82 1013.0
20260506045005 50 0 2.0 6.0 0.00 0.00 0.00 82 1012.9
20260506044505 50 359 1.0 6.0 0.00 0.00 0.00 82 1012.8
20260506044005 51 7 3.0 6.0 0.00 0.00 0.00 83 1012.8
20260506042504 51 330 1.0 3.0 0.00 0.00 0.00 82 1012.7
20260506042005 51 21 2.0 5.0 0.00 0.00 0.00 82 1012.7
20260506040005 51 344 1.0 6.0 0.00 0.00 0.00 81 1012.7
20260506035505 51 343 2.0 7.0 0.00 0.00 0.00 81 1012.7
20260506033005 51 13 3.0 6.0 0.00 0.00 0.00 80 1012.7
20260506031505 51 8 2.0 6.0 0.00 0.00 0.00 80 1012.8
20260506031005 51 35 3.0 6.0 0.00 0.00 0.00 80 1012.8
20260506030505 51 19 2.0 6.0 0.00 0.00 0.00 80 1012.8
20260506025505 51 18 3.0 6.0 0.00 0.00 0.00 80 1012.7
20260506024504 51 14 3.0 6.0 0.00 0.00 0.00 81 1012.8
20260506024005 51 3 2.0 3.0 0.00 0.00 0.00 81 1012.7
20260506023504 51 5 1.0 5.0 0.00 0.00 0.00 81 1012.7
20260506020504 51 321 1.0 3.0 0.00 0.00 0.00 81 1012.8
20260506020005 51 336 2.0 3.0 0.00 0.00 0.00 81 1012.8
20260506015006 51 347 2.0 5.0 0.00 0.00 0.00 80 1012.7
20260506014504 51 329 2.0 5.0 0.00 0.00 0.00 80 1012.7
20260506014004 51 335 3.0 6.0 0.00 0.00 0.00 80 1012.7
20260506013004 51 330 2.0 5.0 0.00 0.00 0.00 79 1012.9
20260506012504 51 355 2.0 5.0 0.00 0.00 0.00 79 1012.8
20260506012005 51 342 2.0 5.0 0.00 0.00 0.00 79 1012.8
20260506011004 51 340 2.0 5.0 0.00 0.00 0.00 79 1012.9
20260506010005 51 323 1.0 3.0 0.00 0.00 0.00 79 1012.9
20260506005004 51 324 2.0 5.0 0.00 0.00 0.00 78 1012.9
20260506004505 52 340 2.0 5.0 0.00 0.00 0.00 78 1012.9
20260506004005 52 335 2.0 5.0 0.00 0.00 0.00 78 1013.0
20260506003504 52 308 2.0 5.0 0.00 0.00 0.00 78 1013.0
20260506003005 52 335 3.0 7.0 0.00 0.00 0.00 77 1013.0
20260506002004 52 332 3.0 6.0 0.00 0.00 0.00 77 1013.0
20260506000505 52 333 3.0 6.0 0.00 0.00 0.00 77 1013.0
20260505235004 52 334 3.0 6.0 0.00 0.00 0.00 77 1013.0
20260505233505 52 336 3.0 5.0 0.00 0.00 0.00 76 1013.0
20260505225005 53 325 3.0 6.0 0.00 0.00 0.00 75 1013.2
20260505223504 53 328 3.0 6.0 0.00 0.00 0.00 75 1013.2
20260505223006 53 323 3.0 6.0 0.00 0.00 0.00 74 1013.1
20260505222005 53 323 3.0 5.0 0.00 0.00 0.00 74 1013.2
20260505221504 53 340 2.0 3.0 0.00 0.00 0.00 74 1013.1
20260505220504 53 335 3.0 5.0 0.00 0.00 0.00 74 1013.1
20260505220004 53 327 2.0 5.0 0.00 0.00 0.00 74 1013.2
20260505215005 53 324 3.0 7.0 0.00 0.00 0.00 74 1013.3
20260505214504 53 316 2.0 7.0 0.00 0.00 0.00 74 1013.3
20260505213005 53 338 1.0 3.0 0.00 0.00 0.00 73 1013.2
20260505212004 53 328 2.0 5.0 0.00 0.00 0.00 72 1013.3
20260505211505 53 357 1.0 3.0 0.00 0.00 0.00 72 1013.2
20260505211005 53 329 1.0 3.0 0.00 0.00 0.00 72 1013.2
20260505210505 54 343 2.0 3.0 0.00 0.00 0.00 71 1013.2
20260505205504 54 336 2.0 5.0 0.00 0.00 0.00 70 1013.2
20260505205004 54 341 2.0 3.0 0.00 0.00 0.00 70 1013.2
20260505204505 54 17 2.0 3.0 0.00 0.00 0.00 69 1013.2
20260505204004 55 333 2.0 6.0 0.00 0.00 0.00 68 1013.2
20260505202505 55 357 2.0 5.0 0.00 0.00 0.00 67 1013.1
20260505202005 56 347 2.0 5.0 0.00 0.01 0.00 67 1013.0
20260505201504 56 337 2.0 7.0 0.00 0.01 0.00 66 1013.0
20260505200005 56 15 2.0 8.0 0.00 0.02 0.00 65 1012.9
20260505195004 57 355 3.0 8.0 0.00 0.02 0.00 64 1012.8
20260505193505 57 358 3.0 8.0 0.00 0.02 0.00 64 1012.6
20260505193005 57 1 3.0 8.0 0.00 0.02 0.00 64 1012.6
20260505191505 58 344 2.0 6.0 0.00 0.02 0.00 63 1012.6
20260505185504 59 9 3.0 6.0 0.00 0.02 0.00 62 1012.4
20260505185004 59 340 2.0 7.0 0.00 0.02 0.00 62 1012.3
20260505182504 60 338 4.0 9.0 0.00 0.02 0.00 59 1012.2
20260505182005 60 341 5.0 9.0 0.00 0.02 0.00 57 1012.1
20260505181004 60 345 2.0 9.0 0.00 0.02 0.00 57 1012.1
20260505180005 61 354 5.0 7.0 0.00 0.02 0.00 55 1012.1
20260505175505 61 341 3.0 9.0 0.00 0.02 0.00 55 1012.1
20260505173505 62 10 5.0 10.0 0.00 0.02 0.00 53 1012.1
20260505173005 62 358 5.0 10.0 0.00 0.02 0.00 53 1012.2
20260505172504 62 4 4.0 10.0 0.00 0.02 0.00 52 1012.1
20260505172004 62 7 5.0 10.0 0.00 0.02 0.00 50 1012.2
20260505171505 63 339 5.0 9.0 0.00 0.02 0.00 51 1012.2
20260505171005 63 13 3.0 9.0 0.00 0.02 0.00 51 1012.2
20260505170504 63 345 3.0 13.0 0.00 0.02 0.00 51 1012.2
20260505165504 63 330 5.0 9.0 0.00 0.02 0.00 51 1012.2
20260505165004 63 343 6.0 9.0 0.00 0.02 0.00 48 1012.3
20260505163504 63 319 5.0 10.0 0.00 0.02 0.00 50 1012.3
20260505162505 63 25 4.0 10.0 0.00 0.02 0.00 50 1012.2
20260505161504 63 6 4.0 10.0 0.00 0.03 0.00 51 1012.3
20260505160505 63 331 6.0 10.0 0.00 0.03 0.00 50 1012.2
20260505153005 63 353 5.0 12.0 0.00 0.04 0.00 51 1012.4
20260505152504 64 349 7.0 12.0 0.00 0.04 0.00 49 1012.4
20260505140504 62 345 7.0 13.0 0.00 0.04 0.00 55 1012.8
20260505124505 63 353 6.0 10.0 0.00 0.04 0.00 57 1013.2
20260505124005 64 347 5.0 10.0 0.00 0.04 0.00 58 1013.2
20260505122505 64 356 3.0 13.0 0.00 0.04 0.00 60 1013.1
20260505121504 63 340 5.0 12.0 0.00 0.04 0.00 59 1013.2
20260505120005 63 13 5.0 12.0 0.00 0.04 0.00 58 1013.3
20260505115005 63 342 7.0 13.0 0.00 0.04 0.00 60 1013.2
20260505114004 63 350 4.0 12.0 0.00 0.04 0.00 59 1013.2
20260505113504 63 1 6.0 14.0 0.00 0.04 0.00 60 1013.2
20260505113005 63 338 7.0 14.0 0.00 0.04 0.00 61 1013.3
20260505112504 63 357 5.0 9.0 0.00 0.04 0.00 62 1013.3
20260505111505 61 329 5.0 9.0 0.00 0.04 0.00 63 1013.3
20260505111004 61 330 5.0 12.0 0.00 0.04 0.00 63 1013.3
20260505101004 57 25 3.0 8.0 0.00 0.04 0.00 70 1013.7
20260505100004 57 8 5.0 9.0 0.00 0.04 0.00 70 1013.7
20260505094504 57 350 4.0 9.0 0.00 0.04 0.00 73 1013.7
20260505092504 57 354 4.0 7.0 0.00 0.04 0.00 74 1013.8
20260505092005 57 6 2.0 7.0 0.00 0.04 0.00 74 1013.8
20260505090505 57 16 4.0 10.0 0.00 0.04 0.00 73 1013.7
20260505085004 57 355 5.0 10.0 0.00 0.04 0.00 74 1013.8
20260505084505 57 329 3.0 8.0 0.00 0.04 0.00 76 1013.8
20260505083504 57 328 5.0 8.0 0.00 0.04 0.00 77 1014.0
20260505082005 55 19 3.0 8.0 0.00 0.04 0.00 81 1014.0
20260505081505 55 349 5.0 8.0 0.00 0.04 0.00 82 1014.0
20260505081004 55 12 3.0 9.0 0.00 0.04 0.00 81 1014.0
20260505080505 55 356 3.0 9.0 0.00 0.04 0.00 82 1014.0
20260505080005 55 332 4.0 8.0 0.00 0.04 0.00 83 1014.0
20260505075504 55 339 5.0 8.0 0.00 0.04 0.00 85 1013.9
20260505075004 54 343 3.0 8.0 0.00 0.04 0.00 87 1014.0
20260505074504 54 347 4.0 8.0 0.00 0.04 0.00 88 1014.0
20260505073504 53 349 3.0 6.0 0.00 0.04 0.00 88 1013.9
20260505073005 53 20 3.0 7.0 0.00 0.04 0.00 90 1013.9
20260505072005 52 354 3.0 6.0 0.00 0.04 0.00 90 1014.0
20260505071504 52 341 3.0 7.0 0.00 0.04 0.00 91 1014.0
20260505070504 52 352 3.0 9.0 0.00 0.04 0.00 92 1013.9
20260505070005 52 22 3.0 9.0 0.00 0.04 0.00 92 1013.9
20260505065005 51 353 2.0 6.0 0.00 0.04 0.00 93 1014.1